Nausori, Fiji

2:37 PM +12 on March 26, 2017 (GMT +1200)
Nausori International

Weather History for NFNA - January, 2011

Change the Weather History Date:

Wednesday, January 5, 2011

  Actual Average Record
Temperature  
Mean Temperature 78 °F -  
Max Temperature 87 °F 87 °F - ()
Min Temperature 69 °F 75 °F - ()
Cooling Degree Days 13    
Growing Degree Days 28 (Base 50)    
Moisture  
Dew Point 73 °F    
Average Humidity 82    
Maximum Humidity 100    
Minimum Humidity 57    
Precipitation  
Precipitation 0.00 in 0.41 in - ()
Sea Level Pressure  
Sea Level Pressure 29.74 in    
Wind  
Wind Speed 3 mph ()    
Max Wind Speed 12 mph    
Max Gust Speed -    
Visibility 12.0 miles    
Events      
T = Trace of Precipitation, MM = Missing Value Source: Averaged Metar Reports

Daily Weather History Graph

Daily Weather History Graph

Search for Another Location

Airport or City:

Trip Planner

Search our weather history database for the weather conditions in past years. The results will help you decide how hot, cold, wet, or windy it might be!

Date:

Astronomy

Jan. 05, 2011 Rise Set
Actual Time 6:35 AM +13 7:45 PM +13
Civil Twilight 6:11 AM +13 8:10 PM +13
Nautical Twilight 5:42 AM +13 8:38 PM +13
Astronomical Twilight 5:13 AM +13 9:07 PM +13
Moon 7:00 AM +13 (1/5) 8:20 PM +13 (1/5)
Length of Visible Light 13h 58m
Length of Day
13h 10m
New Moon, 0% of the Moon is Illuminated
Jan 5
New Moon
Jan 13
First Quarter
Jan 20
Full
Jan 27
Last Quarter
Feb 3
New

Hourly Weather History & Observations

Time (+13) Temp. Heat Index Dew Point Humidity Pressure Visibility Wind Dir Wind Speed Gust Speed Precip Events Conditions
12:00 AM 73.4 °F - 71.6 °F 94% 29.80 in 24.9 mi Calm Calm - N/A   Partly Cloudy
1:00 AM 73 °F - 72 °F 95% 29.80 in 31 mi Calm Calm - -   Partly Cloudy
1:00 AM 73.4 °F - 71.6 °F 94% 29.80 in 24.9 mi Calm Calm - N/A   Partly Cloudy
2:00 AM 71.6 °F - 71.6 °F 100% 29.77 in 24.9 mi Calm Calm - N/A   Partly Cloudy
3:00 AM 71.6 °F - 71.6 °F 100% 29.74 in 24.9 mi Calm Calm - N/A   Partly Cloudy
4:00 AM 76 °F - 70 °F 77% 29.75 in 12 mi Calm Calm - -   Partly Cloudy
4:00 AM 69.8 °F - 69.8 °F 100% 29.74 in 24.9 mi Calm Calm - N/A   Partly Cloudy
5:00 AM 69.8 °F - 69.8 °F 100% 29.74 in 24.9 mi Calm Calm - N/A   Partly Cloudy
6:00 AM 69.8 °F - 69.8 °F 100% 29.74 in 24.9 mi Calm Calm - N/A   Partly Cloudy
7:00 AM 74 °F - 69 °F 79% 29.76 in 31 mi Calm Calm - -   Partly Cloudy
7:00 AM 69.8 °F - 69.8 °F 100% 29.74 in 24.9 mi Calm Calm - N/A   Partly Cloudy
8:00 AM 73.4 °F - 69.8 °F 88% 29.77 in 24.9 mi Calm Calm - N/A   Partly Cloudy
9:00 AM 77.0 °F - 73.4 °F 89% 29.77 in 31.1 mi Calm Calm - N/A   Mostly Cloudy
10:00 AM 82 °F - 74 °F 70% 29.78 in 31 mi Calm Calm - -   Partly Cloudy
10:00 AM 82.4 °F 88.2 °F 73.4 °F 74% 29.77 in 31.1 mi Calm Calm - N/A   Mostly Cloudy
11:00 AM 82.4 °F 88.2 °F 73.4 °F 74% 29.77 in 31.1 mi NNE 11.5 mph - N/A   Mostly Cloudy
12:00 PM 86.0 °F 93.4 °F 73.4 °F 66% 29.77 in 31.1 mi ENE 11.5 mph - N/A   Mostly Cloudy
1:00 PM 85 °F - 73 °F 61% 29.75 in 31 mi NNE 11.5 mph - -   Partly Cloudy
1:00 PM 86.0 °F 93.4 °F 73.4 °F 66% 29.74 in 31.1 mi NNE 11.5 mph - N/A   Mostly Cloudy
2:00 PM 86.0 °F 93.4 °F 73.4 °F 66% 29.71 in 31.1 mi ENE 11.5 mph - N/A   Mostly Cloudy
3:00 PM 87.8 °F 95.6 °F 73.4 °F 62% 29.71 in 31.1 mi NE 11.5 mph - N/A   Mostly Cloudy
4:00 PM 87 °F - 74 °F 57% 29.71 in 31 mi NE 11.5 mph - -   Partly Cloudy
4:00 PM 87.8 °F 95.6 °F 73.4 °F 62% 29.68 in 31.1 mi NE 11.5 mph - N/A   Mostly Cloudy
5:00 PM 84.2 °F 92.3 °F 75.2 °F 74% 29.68 in 31.1 mi ENE 11.5 mph - N/A   Mostly Cloudy
6:00 PM 84.2 °F 90.9 °F 73.4 °F 70% 29.68 in 31.1 mi NE 9.2 mph - N/A   Mostly Cloudy
7:00 PM 83 °F - 74 °F 69% 29.72 in 31 mi ENE 6.9 mph - -   Partly Cloudy
7:00 PM 84.2 °F 92.3 °F 75.2 °F 74% 29.71 in 31.1 mi ENE 6.9 mph - N/A   Mostly Cloudy
8:00 PM 82.4 °F 89.5 °F 75.2 °F 79% 29.71 in 31.1 mi North 9.2 mph - N/A   Overcast
9:00 PM 77.0 °F - 75.2 °F 94% 29.74 in 24.9 mi North 6.9 mph - N/A   Overcast
10:00 PM 77 °F - 76 °F 95% 29.77 in 12 mi Calm Calm - -   Partly Cloudy
10:00 PM 77.0 °F - 75.2 °F 94% 29.74 in 24.9 mi Calm Calm - N/A   Overcast
11:00 PM 77.0 °F - 75.2 °F 94% 29.77 in 24.9 mi East 5.8 mph - N/A   Mostly Cloudy